CW0630 Weather Reports


time (UTC)temp
C
wind
direction
speed
KPH
gust
KPH
rain 1hr
cm
rain 24hr
cm
rain mn
cm
humidity
%
barometer
mb
20260903031012 26 145 0.0 0.0 0.00 0.00 0.00 90 1017.0
20260903021022 26 143 0.0 0.0 0.00 0.00 0.00 87 1017.5
20260903011023 27 130 0.0 0.0 0.00 0.00 0.00 84 1017.6
20260903001042 28 108 1.6 1.6 0.00 0.00 0.00 81 1017.2
20260902231034 28 80 1.6 1.6 0.00 0.00 0.00 79 1017.7
20260902221017 29 121 0.0 0.0 0.00 0.00 0.00 75 1017.5
20260902211027 31 73 6.4 6.4 0.00 0.00 0.00 66 1017.2
20260902201014 34 9 11.3 11.3 0.00 0.00 0.00 59 1017.4
20260902191026 35 28 0.0 0.0 0.00 0.00 0.00 56 1017.2
20260902181038 35 117 0.0 6.4 0.00 0.00 0.00 56 1017.8
20260902171028 35 355 3.2 3.2 0.00 0.00 0.00 59 1018.0
20260902161020 34 54 0.0 3.2 0.00 0.00 0.00 58 1018.2
20260902151019 32 346 0.0 8.0 0.00 0.00 0.00 62 1018.6
20260902141025 31 62 4.8 4.8 0.00 0.00 0.00 67 1018.3
20260902131031 28 350 1.6 1.6 0.00 0.00 0.00 75 1018.2
20260902121028 25 349 0.0 1.6 0.00 0.00 0.00 85 1017.8
20260902111046 24 350 0.0 0.0 0.00 0.00 0.00 88 1017.8
20260902101021 25 350 0.0 0.0 0.00 0.00 0.00 86 1017.5
20260902091032 25 360 0.0 0.0 0.00 0.00 0.00 86 1017.1
20260902081018 25 296 0.0 0.0 0.00 0.00 0.00 89 1016.9
20260902071020 24 292 0.0 0.0 0.00 0.00 0.00 89 1017.1
20260902061024 24 180 0.0 0.0 0.00 0.00 0.00 88 1016.9
20260902051042 25 180 0.0 0.0 0.00 0.00 0.00 83 1017.0
20260902041012 26 180 0.0 0.0 0.00 0.00 0.00 81 1016.6